StationID,Date,MaxTemp,MinTemp,Precipitation,Snowfall,SnowDepth
"USC00503682","1988-08-01",64.94,51.08,30.00,0.00,0.00
"USC00503682","1988-08-02",60.98,46.04,0.00,0.00,0.00
"USC00503682","1988-08-03",69.08,46.94,0.00,0.00,0.00
"USC00503682","1988-08-04",66.92,42.98,0.00,0.00,0.00
"USC00503682","1988-08-05",60.98,50.00,33.00,0.00,0.00
"USC00503682","1988-08-06",59.00,50.00,23.00,0.00,0.00
"USC00503682","1988-08-07",59.00,48.92,25.00,0.00,0.00
"USC00503682","1988-08-08",62.96,42.08,0.00,0.00,0.00
"USC00503682","1988-08-09",64.94,39.02,0.00,0.00,0.00
"USC00503682","1988-08-10",64.94,48.92,5.00,0.00,0.00
"USC00503682","1988-08-11",59.00,50.00,201.00,0.00,0.00
"USC00503682","1988-08-12",64.04,42.98,0.00,0.00,0.00
"USC00503682","1988-08-13",64.94,44.96,0.00,0.00,0.00
"USC00503682","1988-08-14",62.06,39.02,0.00,0.00,0.00
"USC00503682","1988-08-15",68.00,39.92,0.00,0.00,0.00
"USC00503682","1988-08-16",68.00,46.04,0.00,0.00,0.00
"USC00503682","1988-08-17",62.06,55.04,0.00,0.00,0.00
"USC00503682","1988-08-18",66.02,51.08,3.00,0.00,0.00
"USC00503682","1988-08-19",62.06,46.04,0.00,0.00,0.00
"USC00503682","1988-08-20",60.98,50.00,3.00,0.00,0.00
"USC00503682","1988-08-21",57.02,44.96,104.00,0.00,0.00
"USC00503682","1988-08-22",57.02,42.08,41.00,0.00,0.00
"USC00503682","1988-08-23",57.02,37.94,0.00,0.00,0.00
"USC00503682","1988-08-24",62.06,41.00,0.00,0.00,0.00
"USC00503682","1988-08-25",59.00,44.96,104.00,0.00,0.00
"USC00503682","1988-08-26",60.08,50.00,0.00,0.00,0.00
"USC00503682","1988-08-27",53.96,48.02,15.00,0.00,0.00
"USC00503682","1988-08-28",62.96,46.94,25.00,0.00,0.00
"USC00503682","1988-08-29",57.02,46.94,18.00,0.00,0.00
"USC00503682","1988-08-30",57.92,44.06,25.00,0.00,0.00
"USC00503682","1988-08-31",53.96,44.06,89.00,0.00,0.00
"USC00503682","1988-09-01",55.04,44.06,61.00,0.00,0.00
"USC00503682","1988-09-02",53.96,37.94,3.00,0.00,0.00
"USC00503682","1988-09-03",59.00,33.98,0.00,0.00,0.00
"USC00503682","1988-09-04",60.08,42.98,8.00,0.00,0.00
"USC00503682","1988-09-05",57.02,37.04,0.00,0.00,0.00
"USC00503682","1988-09-06",55.04,33.08,0.00,0.00,0.00
"USC00503682","1988-09-07",51.08,42.08,41.00,0.00,0.00
"USC00503682","1988-09-08",57.92,35.06,0.00,0.00,0.00
"USC00503682","1988-09-09",55.04,33.98,13.00,0.00,0.00
"USC00503682","1988-09-10",55.94,42.98,71.00,0.00,0.00
"USC00503682","1988-09-11",51.98,42.98,94.00,0.00,0.00
"USC00503682","1988-09-12",50.00,42.98,38.00,0.00,0.00
"USC00503682","1988-09-13",51.08,42.98,25.00,0.00,0.00
"USC00503682","1988-09-14",57.02,35.06,0.00,0.00,0.00
"USC00503682","1988-10-22",,,,,0.00
"USC00503682","1988-10-23",39.02,24.08,0.00,0.00,0.00
"USC00503682","1988-10-24",39.02,24.08,0.00,0.00,0.00
"USC00503682","1988-10-25",30.02,26.96,0.00,0.00,0.00
"USC00503682","1988-10-26",35.06,26.06,10.00,13.00,0.00
"USC00503682","1988-10-27",44.06,32.00,13.00,0.00,0.00
"USC00503682","1988-11-07",41.00,,8.00,0.00,0.00
"USC00503682","1988-11-08",37.94,28.94,20.00,0.00,0.00
"USC00503682","1988-11-09",42.98,35.06,0.00,0.00,0.00
"USC00503682","1988-11-10",42.08,33.08,0.00,0.00,0.00
"USC00503682","1988-11-11",37.04,26.96,0.00,0.00,0.00
"USC00503682","1988-11-12",28.94,21.92,,0.00,0.00
"USC00503682","1988-11-13",28.94,21.92,,0.00,0.00
"USC00503682","1988-11-14",37.94,26.06,33.00,0.00,0.00
"USC00503682","1988-11-15",37.94,26.06,66.00,13.00,25.00
"USC00503682","1988-11-16",32.00,26.06,0.00,0.00,25.00
"USC00503682","1988-11-17",33.98,21.02,33.00,33.00,51.00
"USC00503682","1988-11-18",30.92,12.02,0.00,0.00,51.00
"USC00503682","1988-11-19",30.92,12.02,0.00,0.00,51.00
"USC00503682","1988-11-20",33.08,26.96,8.00,10.00,76.00
"USC00503682","1988-11-21",28.94,24.08,10.00,10.00,76.00
"USC00503682","1988-11-22",24.08,10.04,99.00,175.00,254.00
"USC00503682","1988-11-23",,,0.00,0.00,
"USC00503682","1988-11-24",,,20.00,0.00,
"USC00503682","1988-11-25",,,0.00,0.00,
"USC00503682","1988-11-26",,,0.00,0.00,
"USC00503682","1988-11-27",,,0.00,0.00,
"USC00503682","1988-11-28",26.96,8.06,0.00,0.00,178.00
"USC00503682","1988-11-29",26.06,19.04,56.00,74.00,279.00
"USC00503682","1988-11-30",23.00,12.92,8.00,3.00,254.00
"USC00503682","1988-12-01",19.94,10.04,20.00,38.00,254.00
"USC00503682","1988-12-02",15.08,-0.94,30.00,71.00,305.00
"USC00503682","1988-12-03",35.96,14.00,137.00,25.00,254.00
"USC00503682","1988-12-04",35.06,12.02,38.00,56.00,305.00
"USC00503682","1988-12-05",21.92,6.98,28.00,46.00,330.00
"USC00503682","1988-12-06",21.92,3.02,0.00,0.00,330.00
"USC00503682","1988-12-07",35.06,-0.94,0.00,0.00,330.00
"USC00503682","1988-12-08",35.96,23.00,71.00,53.00,356.00
"USC00503682","1988-12-09",37.04,23.00,51.00,0.00,330.00
"USC00503682","1988-12-10",41.00,23.00,127.00,0.00,254.00
"USC00503682","1988-12-11",39.02,32.00,107.00,0.00,203.00
"USC00503682","1988-12-12",39.02,12.92,53.00,109.00,330.00
"USC00503682","1988-12-13",30.92,6.08,10.00,13.00,330.00
"USC00503682","1988-12-14",39.02,,157.00,64.00,330.00
"USC00503682","1988-12-16",,28.94,,5.00,254.00
"USC00503682","1988-12-17",35.06,26.06,0.00,0.00,254.00
"USC00503682","1988-12-18",37.94,28.94,119.00,8.00,254.00
"USC00503682","1988-12-19",33.98,26.06,48.00,,254.00
"USC00503682","1988-12-20",33.98,23.00,,,254.00
"USC00503682","1988-12-21",26.06,15.98,,,254.00
"USC00503682","1988-12-22",21.02,8.06,,,254.00
"USC00503682","1988-12-23",19.04,6.98,,,254.00
"USC00503682","1988-12-24",33.08,6.98,5.00,8.00,254.00
"USC00503682","1988-12-25",37.04,24.08,0.00,0.00,254.00
"USC00503682","1988-12-26",39.02,24.98,,,254.00
"USC00503682","1988-12-27",37.94,28.04,25.00,5.00,254.00
"USC00503682","1988-12-28",33.98,26.96,38.00,33.00,305.00
"USC00503682","1988-12-29",26.96,21.02,8.00,15.00,330.00
"USC00503682","1988-12-30",32.00,21.02,10.00,25.00,356.00
"USC00503682","1988-12-31",39.02,30.92,0.00,0.00,330.00
"USC00503682","1989-02-01",19.04,-7.96,0.00,0.00,584.00
"USC00503682","1989-02-02",28.04,-7.96,0.00,0.00,559.00
"USC00503682","1989-02-03",30.92,-7.96,0.00,0.00,559.00
"USC00503682","1989-02-04",28.94,3.92,0.00,0.00,559.00
"USC00503682","1989-02-05",33.08,6.98,0.00,0.00,559.00
"USC00503682","1989-02-06",35.06,10.94,0.00,0.00,559.00
"USC00503682","1989-02-07",35.06,28.04,0.00,0.00,559.00
"USC00503682","1989-02-08",35.06,28.04,25.00,25.00,584.00
"USC00503682","1989-02-09",42.98,26.06,0.00,0.00,559.00
"USC00503682","1989-02-10",33.98,21.02,0.00,0.00,559.00
"USC00503682","1989-02-11",41.00,21.02,0.00,0.00,533.00
"USC00503682","1989-02-12",35.06,21.92,0.00,0.00,533.00
"USC00503682","1989-02-13",33.98,15.08,0.00,0.00,533.00
"USC00503682","1989-02-14",39.92,23.00,0.00,0.00,533.00
"USC00503682","1989-02-15",39.02,17.96,0.00,0.00,533.00
"USC00503682","1989-02-16",,,0.00,0.00,533.00
"USC00503682","1989-02-17",46.04,15.98,0.00,0.00,533.00
"USC00503682","1989-02-18",37.94,8.06,0.00,0.00,533.00
"USC00503682","1989-02-19",37.04,12.02,0.00,0.00,533.00
"USC00503682","1989-02-20",42.08,15.08,0.00,0.00,533.00
"USC00503682","1989-02-21",39.02,28.94,23.00,0.00,508.00
"USC00503682","1989-02-22",39.02,28.94,33.00,13.00,508.00
"USC00503682","1989-02-23",39.02,17.06,0.00,0.00,508.00
"USC00503682","1989-02-24",37.04,21.92,0.00,0.00,508.00
"USC00503682","1989-02-25",41.00,,0.00,0.00,508.00
"USC00503682","1989-02-26",37.94,26.96,0.00,0.00,483.00
"USC00503682","1989-02-27",33.98,19.94,0.00,0.00,483.00
"USC00503682","1989-02-28",37.04,12.92,0.00,0.00,483.00
"USC00503682","1989-03-01",37.94,14.00,0.00,0.00,483.00
"USC00503682","1989-03-02",33.08,12.02,5.00,8.00,483.00
"USC00503682","1989-03-03",26.06,5.00,0.00,0.00,483.00
"USC00503682","1989-03-04",24.98,6.98,0.00,0.00,483.00
"USC00503682","1989-03-05",32.00,6.08,0.00,0.00,483.00
"USC00503682","1989-03-06",30.02,5.00,0.00,0.00,483.00
"USC00503682","1989-03-07",30.92,6.08,0.00,0.00,483.00
"USC00503682","1989-03-08",33.08,8.96,0.00,0.00,483.00
"USC00503682","1989-03-09",30.02,8.06,0.00,0.00,483.00
"USC00503682","1989-03-10",37.04,10.04,0.00,0.00,483.00
"USC00503682","1989-03-11",37.04,10.04,0.00,0.00,483.00
"USC00503682","1989-03-12",39.02,8.06,0.00,0.00,483.00
"USC00503682","1989-03-13",42.98,12.02,0.00,0.00,483.00
"USC00503682","1989-03-14",42.08,15.98,0.00,0.00,457.00
"USC00503682","1989-03-15",42.08,17.06,0.00,0.00,457.00
"USC00503682","1989-03-16",39.92,17.06,0.00,0.00,457.00
"USC00503682","1989-03-17",,,,0.00,
"USC00503682","1989-03-18",37.04,15.08,0.00,0.00,432.00
"USC00503682","1989-03-19",39.92,23.00,0.00,0.00,432.00
"USC00503682","1989-03-20",42.08,,0.00,5.00,432.00
"USC00503682","1989-03-21",39.02,30.02,0.00,0.00,432.00
"USC00503682","1989-03-22",39.02,21.92,5.00,0.00,432.00
"USC00503682","1989-03-23",48.92,33.08,0.00,0.00,406.00
"USC00503682","1989-03-24",51.98,28.04,0.00,0.00,381.00
"USC00503682","1989-03-25",51.98,33.98,0.00,0.00,330.00
"USC00503682","1989-03-26",42.98,30.02,0.00,0.00,305.00
"USC00503682","1989-03-27",37.94,26.06,0.00,0.00,305.00
"USC00503682","1989-03-28",33.98,17.96,0.00,0.00,305.00
"USC00503682","1989-03-29",35.06,12.02,0.00,0.00,305.00
"USC00503682","1989-03-30",37.04,10.04,0.00,0.00,305.00
"USC00503682","1989-03-31",44.96,26.96,0.00,0.00,254.00
"USC00503682","1989-04-01",46.94,26.96,0.00,0.00,203.00
"USC00503682","1989-04-02",46.94,24.98,0.00,0.00,203.00
"USC00503682","1989-04-03",44.96,21.92,0.00,0.00,178.00
"USC00503682","1989-04-04",41.00,23.00,0.00,0.00,152.00
"USC00503682","1989-04-05",41.00,24.98,0.00,0.00,127.00
"USC00503682","1989-04-06",44.06,24.08,0.00,0.00,102.00
"USC00503682","1989-04-07",46.04,21.92,0.00,0.00,51.00
"USC00503682","1989-04-08",44.06,24.98,0.00,0.00,0.00
"USC00503682","1989-04-09",44.06,24.08,0.00,0.00,0.00
"USC00503682","1989-04-10",50.00,33.98,0.00,0.00,0.00
"USC00503682","1989-04-11",50.00,33.08,0.00,0.00,0.00
"USC00503682","1989-04-12",48.02,30.02,0.00,0.00,0.00
"USC00503682","1989-04-13",48.02,26.96,0.00,0.00,0.00
"USC00503682","1989-04-14",46.94,28.04,0.00,0.00,0.00
"USC00503682","1989-04-15",46.94,26.96,0.00,0.00,0.00
"USC00503682","1989-04-16",42.08,33.98,8.00,0.00,0.00
"USC00503682","1989-04-17",39.02,24.08,0.00,0.00,0.00
"USC00503682","1989-04-18",44.06,24.08,0.00,0.00,0.00
"USC00503682","1989-04-19",46.94,30.02,3.00,0.00,0.00
"USC00503682","1989-04-20",39.02,33.08,30.00,0.00,0.00
"USC00503682","1989-04-21",44.96,33.08,0.00,0.00,0.00
"USC00503682","1989-04-22",51.08,28.04,0.00,0.00,0.00
"USC00503682","1989-04-23",48.02,37.04,0.00,0.00,0.00
"USC00503682","1989-04-24",44.06,35.06,18.00,0.00,0.00
"USC00503682","1989-04-25",41.00,33.98,84.00,0.00,0.00
"USC00503682","1989-04-26",42.98,35.96,13.00,0.00,0.00
"USC00503682","1989-04-27",50.00,37.04,0.00,0.00,0.00
"USC00503682","1989-04-28",50.00,37.04,61.00,0.00,0.00
"USC00503682","1989-04-29",55.04,28.94,0.00,0.00,0.00
"USC00503682","1989-04-30",59.00,28.94,0.00,0.00,0.00
"USC00503682","1989-05-01",55.94,30.92,0.00,0.00,0.00
"USC00503682","1989-05-02",57.92,30.92,0.00,0.00,0.00
"USC00503682","1989-05-03",60.08,30.92,0.00,0.00,0.00
"USC00503682","1989-05-04",53.06,35.96,0.00,0.00,0.00
"USC00503682","1989-05-05",53.06,26.96,0.00,0.00,0.00
"USC00503682","1989-05-06",50.00,28.94,0.00,0.00,0.00
"USC00503682","1989-05-07",50.00,28.94,36.00,0.00,0.00
"USC00503682","1989-05-08",51.98,30.92,25.00,0.00,0.00
"USC00503682","1989-05-09",55.04,28.04,0.00,0.00,0.00
"USC00503682","1989-05-10",53.96,28.04,0.00,0.00,0.00
"USC00503682","1989-05-11",51.08,30.92,0.00,0.00,0.00
"USC00503682","1989-05-12",48.02,28.94,0.00,0.00,0.00
"USC00503682","1989-05-13",48.02,28.94,0.00,0.00,0.00
"USC00503682","1989-05-14",48.02,35.96,3.00,0.00,0.00
"USC00503682","1989-05-15",46.94,37.94,20.00,0.00,0.00
"USC00503682","1989-05-16",57.02,30.02,0.00,0.00,0.00
"USC00503682","1989-05-17",,28.94,5.00,0.00,0.00
"USC00503682","1989-05-18",42.08,33.08,64.00,0.00,0.00
"USC00503682","1989-05-19",51.08,28.94,0.00,0.00,0.00
"USC00503682","1989-05-20",59.00,28.94,0.00,0.00,0.00
"USC00503682","1989-05-21",53.96,39.02,84.00,0.00,0.00
"USC00503682","1989-05-22",55.04,33.08,0.00,0.00,0.00
"USC00503682","1989-05-23",55.94,30.92,89.00,0.00,0.00
"USC00503682","1989-05-24",53.96,35.96,20.00,0.00,0.00
"USC00503682","1989-05-25",53.96,35.06,0.00,0.00,0.00
"USC00503682","1989-05-26",51.08,37.04,0.00,0.00,0.00
"USC00503682","1989-05-27",55.04,39.92,46.00,0.00,0.00
"USC00503682","1989-05-28",53.06,46.04,0.00,0.00,0.00
"USC00503682","1989-05-29",55.04,39.02,3.00,0.00,0.00
"USC00503682","1989-05-30",55.94,42.08,15.00,0.00,0.00
"USC00503682","1989-05-31",50.00,37.94,0.00,0.00,0.00
"USC00503682","1989-06-01",57.02,39.02,10.00,0.00,0.00
"USC00503682","1989-06-02",55.94,39.02,8.00,0.00,0.00
"USC00503682","1989-06-03",57.02,46.94,0.00,0.00,0.00
"USC00503682","1989-06-04",53.06,42.08,0.00,0.00,0.00
"USC00503682","1989-06-05",55.94,37.04,0.00,0.00,0.00
"USC00503682","1989-06-06",57.92,35.96,0.00,0.00,0.00
"USC00503682","1989-06-07",55.04,35.96,0.00,0.00,0.00
"USC00503682","1989-06-08",51.08,39.02,0.00,0.00,0.00
"USC00503682","1989-06-09",53.96,39.92,0.00,0.00,0.00
"USC00503682","1989-06-10",53.96,37.04,25.00,0.00,0.00
"USC00503682","1989-06-11",55.04,35.96,15.00,0.00,0.00
"USC00503682","1989-06-12",51.98,35.06,3.00,0.00,0.00
"USC00503682","1989-06-13",60.08,35.06,5.00,0.00,0.00
"USC00503682","1989-06-14",60.08,35.06,0.00,0.00,0.00
"USC00503682","1989-06-15",60.08,35.06,0.00,0.00,0.00
"USC00503682","1989-06-16",60.08,35.06,0.00,0.00,0.00
"USC00503682","1989-06-17",60.98,35.06,0.00,0.00,0.00
"USC00503682","1989-06-18",66.92,39.92,0.00,0.00,0.00
"USC00503682","1989-06-19",68.00,39.92,0.00,0.00,0.00
"USC00503682","1989-06-20",60.08,39.92,0.00,0.00,0.00
"USC00503682","1989-06-21",60.98,39.92,0.00,0.00,0.00
"USC00503682","1989-06-22",60.98,39.92,5.00,0.00,0.00
"USC00503682","1989-06-23",60.98,44.06,0.00,0.00,0.00
"USC00503682","1989-06-24",60.98,44.06,25.00,0.00,0.00
"USC00503682","1989-06-25",60.98,37.94,0.00,0.00,0.00
"USC00503682","1989-06-26",60.98,42.98,0.00,0.00,0.00
"USC00503682","1989-06-27",66.92,42.98,0.00,0.00,0.00
"USC00503682","1989-06-28",69.08,44.96,0.00,0.00,0.00
"USC00503682","1989-06-29",68.00,46.94,0.00,0.00,0.00
"USC00503682","1989-06-30",68.00,44.96,0.00,0.00,0.00
"USC00503682","1989-07-01",69.08,44.96,0.00,0.00,0.00
"USC00503682","1989-07-02",71.06,44.96,0.00,0.00,0.00
"USC00503682","1989-07-03",69.08,46.04,0.00,0.00,0.00
"USC00503682","1989-07-04",62.96,42.08,0.00,0.00,0.00
"USC00503682","1989-07-05",62.96,41.00,0.00,0.00,0.00
"USC00503682","1989-07-06",64.94,39.92,0.00,0.00,0.00
"USC00503682","1989-07-07",68.00,42.08,0.00,0.00,0.00
"USC00503682","1989-07-08",68.00,42.08,0.00,0.00,0.00
"USC00503682","1989-07-09",68.00,46.94,0.00,0.00,0.00
"USC00503682","1989-07-10",68.00,44.06,0.00,0.00,0.00
"USC00503682","1989-07-11",68.00,42.98,0.00,0.00,0.00
"USC00503682","1989-07-12",68.00,42.98,3.00,0.00,0.00
"USC00503682","1989-07-13",66.92,53.06,28.00,0.00,0.00
"USC00503682","1989-07-14",66.92,53.06,0.00,0.00,0.00
"USC00503682","1989-07-15",66.92,50.00,0.00,0.00,0.00
"USC00503682","1989-07-16",71.06,42.98,0.00,0.00,0.00
"USC00503682","1989-07-17",71.06,42.98,0.00,0.00,0.00
"USC00503682","1989-07-18",75.92,42.98,0.00,0.00,0.00
"USC00503682","1989-07-19",62.96,51.98,18.00,0.00,0.00
"USC00503682","1989-07-20",55.94,50.00,0.00,0.00,0.00
"USC00503682","1989-07-21",60.98,48.02,0.00,0.00,0.00
"USC00503682","1989-07-22",62.06,39.02,0.00,0.00,0.00
"USC00503682","1989-07-23",57.02,48.02,71.00,0.00,0.00
"USC00503682","1989-07-24",57.02,46.94,94.00,0.00,0.00
"USC00503682","1989-07-25",66.02,46.94,18.00,0.00,0.00
"USC00503682","1989-07-26",66.02,39.92,0.00,0.00,0.00
"USC00503682","1989-07-27",68.00,39.92,0.00,0.00,0.00
"USC00503682","1989-07-28",68.00,39.92,0.00,0.00,0.00
"USC00503682","1989-07-29",69.08,39.92,102.00,0.00,0.00
"USC00503682","1989-07-30",68.00,39.92,18.00,0.00,0.00
"USC00503682","1989-07-31",59.00,51.08,0.00,0.00,0.00
"USC00503682","1989-08-01",60.08,51.98,102.00,0.00,0.00
"USC00503682","1989-08-02",60.08,51.08,69.00,0.00,0.00
"USC00503682","1989-08-03",64.04,50.00,10.00,0.00,0.00
"USC00503682","1989-08-04",66.92,44.06,0.00,0.00,0.00
"USC00503682","1989-08-05",69.08,53.06,0.00,0.00,0.00
"USC00503682","1989-08-06",69.08,53.96,0.00,0.00,0.00
"USC00503682","1989-08-07",64.94,46.04,0.00,0.00,0.00
"USC00503682","1989-08-08",60.08,50.00,5.00,0.00,0.00
"USC00503682","1989-08-09",60.08,50.00,119.00,0.00,0.00
"USC00503682","1989-08-10",66.92,53.06,20.00,0.00,0.00
"USC00503682","1989-08-11",73.04,51.98,69.00,0.00,0.00
"USC00503682","1989-08-12",73.04,50.00,0.00,0.00,0.00
"USC00503682","1989-08-13",73.04,48.92,0.00,0.00,0.00
"USC00503682","1989-08-14",66.92,46.04,0.00,0.00,0.00
"USC00503682","1989-08-15",66.92,48.92,0.00,0.00,0.00
"USC00503682","1989-08-16",66.92,51.08,10.00,0.00,0.00
"USC00503682","1989-08-17",64.04,51.08,8.00,0.00,0.00
"USC00503682","1989-08-18",66.92,55.04,0.00,0.00,0.00
"USC00503682","1989-08-19",62.06,51.08,15.00,0.00,0.00
"USC00503682","1989-08-20",57.02,46.94,3.00,0.00,0.00
"USC00503682","1989-08-21",69.98,39.92,0.00,0.00,0.00
"USC00503682","1989-08-22",64.94,44.06,0.00,0.00,0.00
"USC00503682","1989-08-23",57.02,50.00,13.00,0.00,0.00
"USC00503682","1989-08-24",,,,0.00,0.00
"USC00503682","1989-08-25",,,,0.00,0.00
"USC00503682","1989-08-26",,,,0.00,0.00
"USC00503682","1989-08-27",,,,0.00,0.00
"USC00503682","1989-08-28",,,,0.00,0.00
"USC00503682","1989-08-29",64.04,46.04,30.00,0.00,0.00
"USC00503682","1989-08-30",64.04,44.06,8.00,0.00,0.00
"USC00503682","1989-08-31",57.92,44.06,8.00,0.00,0.00
"USC00503682","1989-09-01",57.92,48.92,69.00,0.00,0.00
"USC00503682","1989-09-02",55.04,46.04,25.00,0.00,0.00
"USC00503682","1989-09-03",57.92,44.06,10.00,0.00,0.00
"USC00503682","1989-09-04",57.02,41.00,5.00,0.00,0.00
"USC00503682","1989-09-05",60.98,48.02,28.00,0.00,0.00
"USC00503682","1989-09-06",64.94,50.00,58.00,0.00,0.00
"USC00503682","1989-09-07",66.02,53.06,5.00,0.00,0.00
"USC00503682","1989-09-08",66.02,48.02,0.00,0.00,0.00
"USC00503682","1989-09-09",66.02,48.02,69.00,0.00,0.00
"USC00503682","1989-09-10",57.92,50.00,0.00,0.00,0.00
"USC00503682","1989-09-11",55.04,46.04,5.00,0.00,0.00
"USC00503682","1989-09-12",53.06,44.96,53.00,0.00,0.00
"USC00503682","1989-09-13",,44.96,23.00,0.00,0.00
"USC00503682","1989-09-14",,,,0.00,0.00
"USC00503682","1989-09-15",57.92,33.08,,0.00,0.00
"USC00503682","1989-09-16",53.96,33.98,0.00,0.00,0.00
"USC00503682","1989-09-17",50.00,44.96,165.00,0.00,0.00
"USC00503682","1989-09-18",53.96,44.96,13.00,0.00,0.00
"USC00503682","1989-09-19",62.06,39.92,46.00,0.00,0.00
"USC00503682","1989-09-20",55.94,44.96,61.00,0.00,0.00
"USC00503682","1989-09-21",60.08,42.08,13.00,0.00,0.00
"USC00503682","1989-09-22",55.04,44.06,28.00,0.00,0.00
"USC00503682","1989-09-23",55.04,42.08,53.00,0.00,0.00
"USC00503682","1989-09-24",57.92,46.94,36.00,0.00,0.00
"USC00503682","1989-09-25",53.96,46.04,43.00,0.00,0.00
"USC00503682","1989-09-26",53.06,37.04,13.00,0.00,0.00
"USC00503682","1989-09-27",50.00,42.08,56.00,0.00,0.00
"USC00503682","1989-09-28",55.04,37.04,8.00,0.00,0.00
"USC00503682","1989-09-29",55.04,37.04,0.00,0.00,0.00
"USC00503682","1989-09-30",48.92,35.96,33.00,0.00,0.00
"USC00503682","1989-10-01",50.00,41.00,41.00,0.00,0.00
"USC00503682","1989-10-02",53.06,35.06,8.00,0.00,0.00
"USC00503682","1989-10-03",53.06,33.98,0.00,0.00,0.00
"USC00503682","1989-10-04",51.08,35.06,127.00,0.00,0.00
"USC00503682","1989-10-05",51.08,41.00,74.00,0.00,0.00
"USC00503682","1989-10-06",55.94,41.00,132.00,0.00,0.00
"USC00503682","1989-10-07",48.92,39.92,36.00,0.00,0.00
"USC00503682","1989-10-08",48.02,35.06,3.00,0.00,0.00
"USC00503682","1989-10-09",48.02,28.04,3.00,0.00,0.00
"USC00503682","1989-10-10",48.02,28.04,0.00,0.00,0.00
"USC00503682","1989-10-11",44.06,28.94,3.00,0.00,0.00
"USC00503682","1989-10-12",44.96,24.98,0.00,0.00,0.00
"USC00503682","1989-10-13",42.98,23.00,0.00,0.00,0.00
"USC00503682","1989-10-14",44.96,32.00,20.00,0.00,0.00
"USC00503682","1989-10-15",44.06,35.96,216.00,0.00,0.00
"USC00503682","1989-10-16",41.00,30.92,79.00,0.00,0.00
"USC00503682","1989-10-17",41.00,30.92,102.00,13.00,0.00
"USC00503682","1989-10-18",41.00,28.04,13.00,8.00,0.00
"USC00503682","1989-10-19",44.06,30.92,56.00,33.00,0.00
"USC00503682","1989-10-20",44.06,26.96,0.00,0.00,0.00
"USC00503682","1989-10-21",44.06,21.92,0.00,0.00,0.00
"USC00503682","1989-10-22",35.06,15.98,0.00,0.00,0.00
"USC00503682","1989-10-23",39.02,28.94,13.00,0.00,0.00
"USC00503682","1989-10-24",39.92,28.94,0.00,0.00,0.00
"USC00503682","1989-10-25",35.96,21.02,0.00,0.00,0.00
"USC00503682","1989-10-26",32.00,17.06,0.00,0.00,0.00
"USC00503682","1989-10-27",39.02,19.94,18.00,13.00,
"USC00503682","1989-10-28",39.02,30.02,10.00,0.00,0.00
"USC00503682","1989-10-29",39.02,30.02,3.00,0.00,0.00
"USC00503682","1989-10-30",37.94,24.98,0.00,0.00,0.00
"USC00503682","1989-10-31",44.06,33.08,0.00,0.00,0.00
"USC00503682","1989-11-01",44.06,35.06,3.00,0.00,0.00
"USC00503682","1989-11-02",44.96,35.06,28.00,0.00,0.00
"USC00503682","1989-11-03",44.96,33.98,20.00,0.00,0.00
"USC00503682","1989-11-04",42.98,30.92,0.00,0.00,0.00
"USC00503682","1989-11-05",39.02,26.96,20.00,0.00,0.00
"USC00503682","1989-11-06",24.98,14.00,3.00,0.00,0.00
"USC00503682","1989-11-07",19.94,8.06,0.00,0.00,0.00
"USC00503682","1989-11-08",14.00,3.02,0.00,0.00,0.00
"USC00503682","1989-11-09",8.96,-4.00,0.00,0.00,0.00
"USC00503682","1989-11-10",15.98,-5.08,0.00,0.00,0.00
"USC00503682","1989-11-11",17.06,-2.92,0.00,0.00,0.00
"USC00503682","1989-11-12",19.04,10.94,10.00,25.00,25.00
"USC00503682","1989-11-13",26.96,6.08,0.00,0.00,25.00
"USC00503682","1989-11-14",26.06,8.96,0.00,3.00,25.00
"USC00503682","1989-11-15",24.98,10.94,5.00,13.00,25.00
"USC00503682","1989-11-16",33.08,17.96,56.00,58.00,76.00
"USC00503682","1989-11-17",35.96,28.94,58.00,61.00,127.00
"USC00503682","1989-11-18",32.00,19.94,0.00,0.00,127.00
"USC00503682","1989-11-19",28.94,15.08,15.00,28.00,127.00
"USC00503682","1989-11-20",21.02,3.92,0.00,0.00,102.00
"USC00503682","1989-11-21",35.06,3.02,84.00,25.00,127.00
"USC00503682","1989-11-22",37.94,,114.00,0.00,76.00
"USC00503682","1989-11-23",35.96,30.02,0.00,0.00,76.00
"USC00503682","1989-11-24",30.02,24.08,10.00,5.00,76.00
"USC00503682","1989-11-25",30.02,17.06,0.00,0.00,76.00
"USC00503682","1989-11-26",35.06,26.06,0.00,0.00,76.00
"USC00503682","1989-11-30",,,,8.00,76.00
"USC00503682","1989-12-01",37.94,21.02,0.00,0.00,76.00
"USC00503682","1989-12-02",42.08,33.98,38.00,0.00,51.00
"USC00503682","1989-12-03",39.92,32.00,43.00,33.00,76.00
"USC00503682","1989-12-04",32.00,26.06,15.00,28.00,102.00
"USC00503682","1989-12-05",35.96,28.04,71.00,114.00,178.00
"USC00503682","1989-12-06",41.00,28.04,56.00,0.00,76.00
"USC00503682","1989-12-07",42.08,33.98,0.00,0.00,76.00
"USC00503682","1989-12-08",37.04,26.06,0.00,0.00,51.00
"USC00503682","1989-12-09",39.02,23.00,15.00,0.00,51.00
"USC00503682","1989-12-10",39.92,30.92,107.00,0.00,51.00
"USC00503682","1989-12-11",44.06,30.92,5.00,0.00,51.00
"USC00503682","1989-12-12",46.04,30.92,10.00,0.00,25.00
"USC00503682","1989-12-13",46.04,30.02,0.00,0.00,0.00
"USC00503682","1989-12-14",,,,0.00,0.00
"USC00503682","1989-12-15",35.96,28.04,0.00,0.00,0.00
"USC00503682","1989-12-16",33.98,28.94,0.00,0.00,0.00
"USC00503682","1989-12-17",33.08,28.94,43.00,25.00,25.00
"USC00503682","1989-12-18",32.00,21.92,13.00,0.00,25.00
"USC00503682","1989-12-19",26.06,21.02,,0.00,25.00
"USC00503682","1989-12-20",28.04,21.02,15.00,15.00,51.00
"USC00503682","1989-12-21",30.02,24.08,20.00,33.00,76.00
"USC00503682","1989-12-22",30.92,26.96,53.00,64.00,127.00
"USC00503682","1989-12-23",32.00,19.94,30.00,25.00,152.00
"USC00503682","1989-12-24",32.00,19.94,5.00,5.00,127.00
"USC00503682","1989-12-25",32.00,15.08,5.00,3.00,127.00
"USC00503682","1989-12-26",17.96,6.08,0.00,0.00,127.00
"USC00503682","1989-12-27",37.04,6.08,8.00,8.00,127.00
"USC00503682","1989-12-28",35.96,15.98,46.00,3.00,102.00